sat.trackr.live / text

‹ back to catalog

STARLINK-35886

NORAD 66838 · 2025-280T

PAYLOAD ACTIVE UNKNOWN

§ Identity

Operator
Country
US
Launch date
2025-12-02
Launch site
AFWTR
Launch vehicle
Mass (kg)
RCS (m²)

Purposes: comms

External: N2YO · Heavens-Above · Gunter

§ Orbital elements

Epoch: 2026-09-20T06:16:31.643904Z

Period
96.11 min
Inclination
70.0011°
Eccentricity
0.0002778
Mean motion
14.98340296 rev/d
Perigee alt
570.1 km
Apogee alt
574.0 km
Semi-major
6,950.2 km
B*
3.3522e-4
RAAN
203.7569°
Arg perigee
271.2188°
Mean anomaly
88.8652°
Rev number
4,522

§ Raw data

STARLINK-358861 66838U 25280T   26263.26147736  .00003910  00000+0  33522-3 0  99932 66838  70.0011 203.7569 0002778 271.2188  88.8652 14.98340296 45223

JSON: /api/v1/satellites/66838 · /tle

For live sub-satellite position, see the globe view (requires WebGL).

§ Visibility from observer

Set your observer location to see the next 7 days of passes ≥ 10°. The values pass through the URL so the page stays shareable.

No JS? Fill the form by hand. The geolocation button needs JavaScript.